Printer-friendly version
Follow the MPC on Twitter Follow the MPC on Facebook The MPC blog
Minor Planet Center

MPEC 2004-V02 : COMET P/2004 T1 (LINEAR-NEAT)

The following Minor Planet Electronic Circular may be linked-to from your own Web pages, but must not otherwise be redistributed electronically.

A form allowing access to any MPEC is at the bottom of this page.


Read MPEC 2004-V01 Read MPEC 2004-V03


M.P.E.C. 2004-V02                                Issued 2004 Nov. 1, 18:09 UT

     The Minor Planet Electronic Circulars contain information on unusual
         minor planets and routine data on comets.  They are published
   on behalf of Commission 20 of the International Astronomical Union by the
          Minor Planet Center, Smithsonian Astrophysical Observatory,
                          Cambridge, MA 02138, U.S.A.

                  Supported in part by the Brinson Foundation
             Prepared using the Tamkin Foundation Computer Network

                              MPC@CFA.HARVARD.EDU
          URL http://cfa-www.harvard.edu/iau/mpc.html  ISSN 1523-6714

                         COMET P/2004 T1 (LINEAR-NEAT)

Observations:
    PK04T010  C2004 10 16.66650 00 49 08.04 -10 37 21.6                 EV002349
    PK04T010  C2004 10 16.66768 00 49 07.99 -10 37 20.7                 EV002349
    PK04T010  C2004 10 16.66885 00 49 07.93 -10 37 19.9          14.1 T EV002349
    PK04T010  C2004 10 17.07681 00 48 52.69 -10 32 45.2                 EV002834
    PK04T010  C2004 10 17.09738 00 48 51.78 -10 32 32.9                 EV002834
    PK04T010  C2004 10 17.12899 00 48 50.43 -10 32 12.7                 EV002834
    PK04T010  C2004 10 17.55094 00 48 34.45 -10 27 52.6                 EV002D83
    PK04T010  C2004 10 17.55280 00 48 34.40 -10 27 50.8                 EV002D83
    PK04T010  C2004 10 17.55469 00 48 34.29 -10 27 49.5                 EV002D83
    PK04T010  C2004 10 17.55664 00 48 34.19 -10 27 48.0          14.9 T EV002D83
    PK04T010  C2004 10 17.90744 00 48 20.92 -10 23 57.9          16.1 N EV002130
    PK04T010  C2004 10 17.90895 00 48 20.89 -10 23 57.1          16.4 N EV002130
    PK04T010  C2004 10 17.91020 00 48 20.83 -10 23 56.1          16.6 N EV002130
    PK04T010  C2004 10 17.91146 00 48 20.77 -10 23 55.6          16.6 N EV002130
    PK04T010  C2004 10 17.91297 00 48 20.75 -10 23 54.3          16.0 N EV002130
    PK04T010  C2004 10 20.09976 00 47 00.89 -09 58 44.8                 EV002834
    PK04T010  C2004 10 20.13005 00 46 59.73 -09 58 23.8                 EV002834
    PK04T010  C2004 10 20.15354 00 46 58.78 -09 58 06.9                 EV002834
    PK04T010   2004 10 21.61604 00 46 08.65 -09 40 44.6          15.3 T EV002372
    PK04T010   2004 10 21.62118 00 46 08.57 -09 40 41.9                 EV002372
    PK04T010  C2004 10 23.00178 00 45 23.96 -09 23 30.2          15.4 N EV002939
    PK04T010  C2004 10 23.00642 00 45 23.79 -09 23 26.2          15.4 N EV002939
    PK04T010  C2004 10 23.01106 00 45 23.64 -09 23 22.4          15.4 N EV002939
    PK04T010  C2004 10 23.88705 00 44 57.20 -09 12 09.4          15.8 N EV002213
    PK04T010  C2004 10 23.88787 00 44 57.15 -09 12 08.9          15.6 N EV002213
    PK04T010  C2004 10 23.88870 00 44 57.14 -09 12 08.6          15.9 N EV002213
    PK04T010  C2004 10 24.05079 00 44 52.13 -09 09 51.9          16.1 N EV002I77
    PK04T010  C2004 10 24.06025 00 44 51.80 -09 09 44.7          16.2 N EV002I77
    PK04T010  C2004 10 24.06961 00 44 51.46 -09 09 37.3          16.3 N EV002I77
    PK04T010  C2004 10 24.07770 00 44 51.24 -09 09 30.6          16.1 N EV002I77
    PK04T010  C2004 10 29.86016 00 42 27.04 -07 49 45.0          15.5 N EV002213
    PK04T010  C2004 10 29.86238 00 42 27.06 -07 49 43.1          15.5 N EV002213
    PK04T010  C2004 10 29.86459 00 42 26.94 -07 49 40.9          15.5 N EV002213
    PK04T010  C2004 10 31.92998 00 41 49.63 -07 19 01.9          15.5 N EV002939
    PK04T010  C2004 10 31.93600 00 41 49.50 -07 18 56.6          15.5 N EV002939
    PK04T010  C2004 10 31.94200 00 41 49.39 -07 18 51.2          15.5 N EV002939

Observer details:
130 Lumezzane.  Observers C. Cremaschini, S. Foglia, W. Marinello, M. Micheli,
    G. Pizzetti.  Measurers C. Cremaschini, M. Micheli.  0.40-m f/4.5
    reflector + CCD.
213 Observatorio Montcabre.  Observer R. Naves.  Measurer M. Campas.  0.30-m
    f/6.6 Schmidt-Cassegrain + CCD.
349 Ageo.  Observer K. Kadota.  0.25-m f/5.0 reflector + CCD.
372 Geisei.  Observer T. Seki.  0.60-m f/3.5 reflector.
834 Buenos Aires-AAAA.  Observers R. Mackintosh, M. Konishi, R. Caprio.
    Measurer R. Mackintosh.  0.25-m f/6.3 Schmidt-Cassegrain + CCD.
939 Observatorio Rodeno.  Observer J. Castellano.  0.20-m f/10
    Schmidt-Cassegrain + CCD.
D83 Miwa.  Observer Y. Ohshima.  0.25-m f/5 reflector + CCD.
I77 CEAMIG-REA Observatory, Belo Horizonte.  Observers C. Jacques, E. Pimentel.
    Measurer C. Jacques.  0.30-m f/3.0 Schmidt-Cassegrain + CCD.

Orbital elements:
    P/2004 T1 (LINEAR-NEAT)
T 2004 Nov. 7.7922 TT                                   MPC
q   1.709538             (2000.0)            P               Q
n   0.1522995      Peri.  336.5379      +0.8772166      -0.4561403
a   3.472726       Node    51.4584      +0.4652131      +0.7305503
e   0.507724       Incl.   11.0384      +0.1186076      +0.5081655
P   6.47
From 246 observations 2004 Sept. 21-Oct. 31.

Ephemeris:
    P/2004 T1 (LINEAR-NEAT)
Date    TT    R. A. (2000) Decl.     Delta      r     Elong.  Phase   m1    m2
2004 11 01    00 41.81   -07 17.9    0.794    1.711   146.3    18.8  14.3
2004 11 11    00 40.87   -04 37.0    0.840    1.710   138.0    22.8  14.5
2004 11 21    00 43.54   -01 41.9    0.902    1.714   130.1    26.1  14.6
2004 12 01    00 49.70   +01 19.9    0.977    1.723   122.8    28.7  14.8
2004 12 11    00 58.99   +04 22.5    1.063    1.737   116.0    30.6  15.0
2004 12 21    01 10.97   +07 22.4    1.160    1.756   109.8    31.8  15.3

Brian G. Marsden             (C) Copyright 2004 MPC           M.P.E.C. 2004-V02

Read MPEC 2004-V01 Read MPEC 2004-V03


MPEC number:

Enter an MPEC number in one of the following forms:

  • 1997-B01 (the full form)
  • J97B01 (the packed version of the full form)
  • B01 (the abbreviated form)

Valid HTML 4.01!